Year,Month,Day,Hour,Minute,Value (Times are PST for temperature in C)
2007,07,13,00,00,16.90
2007,07,13,00,01,16.90
2007,07,13,00,02,16.90
2007,07,13,00,03,16.90
2007,07,13,00,04,16.90
2007,07,13,00,05,17.00
2007,07,13,00,06,17.00
2007,07,13,00,07,17.00
2007,07,13,00,08,17.00
2007,07,13,00,09,16.90
2007,07,13,00,10,16.90
2007,07,13,00,11,16.90
2007,07,13,00,12,16.90
2007,07,13,00,13,16.90
2007,07,13,00,14,16.80
2007,07,13,00,15,16.80
2007,07,13,00,16,16.80
2007,07,13,00,17,16.80
2007,07,13,00,18,16.70
2007,07,13,00,19,16.70
2007,07,13,00,20,16.70
2007,07,13,00,21,16.70
2007,07,13,00,22,16.70
2007,07,13,00,23,16.70
2007,07,13,00,24,16.70
2007,07,13,00,25,16.60
2007,07,13,00,26,16.60
2007,07,13,00,27,16.50
2007,07,13,00,28,16.40
2007,07,13,00,29,16.40
2007,07,13,00,30,16.40
2007,07,13,00,31,16.40
2007,07,13,00,32,16.30
2007,07,13,00,33,16.30
2007,07,13,00,34,16.30
2007,07,13,00,35,16.30
2007,07,13,00,36,16.30
2007,07,13,00,37,16.30
2007,07,13,00,38,16.30
2007,07,13,00,39,16.40
2007,07,13,00,40,16.40
2007,07,13,00,41,16.40
2007,07,13,00,42,16.40
2007,07,13,00,43,16.40
2007,07,13,00,44,16.40
2007,07,13,00,45,16.40
2007,07,13,00,46,16.40
2007,07,13,00,47,16.40
2007,07,13,00,48,16.40
2007,07,13,00,49,16.40
2007,07,13,00,50,16.40
2007,07,13,00,51,16.40
2007,07,13,00,52,16.40
2007,07,13,00,53,16.40
2007,07,13,00,54,16.40
2007,07,13,00,55,16.30
2007,07,13,00,56,16.30
2007,07,13,00,57,16.30
2007,07,13,00,58,16.20
2007,07,13,00,59,16.20
2007,07,13,01,00,16.10
2007,07,13,01,01,16.10
2007,07,13,01,02,16.10
2007,07,13,01,03,16.10
2007,07,13,01,04,16.10
2007,07,13,01,05,16.10
2007,07,13,01,06,16.10
2007,07,13,01,07,16.10
2007,07,13,01,08,16.10
2007,07,13,01,09,16.10
2007,07,13,01,10,16.10
2007,07,13,01,11,16.20
2007,07,13,01,12,16.10
2007,07,13,01,13,16.10
2007,07,13,01,14,16.10
2007,07,13,01,15,16.10
2007,07,13,01,16,16.00
2007,07,13,01,17,15.90
2007,07,13,01,18,16.00
2007,07,13,01,19,16.10
2007,07,13,01,20,16.10
2007,07,13,01,21,16.20
2007,07,13,01,22,16.30
2007,07,13,01,23,16.30
2007,07,13,01,24,16.40
2007,07,13,01,25,16.40
2007,07,13,01,26,16.40
2007,07,13,01,27,16.30
2007,07,13,01,28,16.20
2007,07,13,01,29,16.10
2007,07,13,01,30,16.10
2007,07,13,01,31,16.00
2007,07,13,01,32,15.90
2007,07,13,01,33,15.80
2007,07,13,01,34,15.80
2007,07,13,01,35,15.80
2007,07,13,01,36,15.70
2007,07,13,01,37,15.70
2007,07,13,01,38,15.60
2007,07,13,01,39,15.60
2007,07,13,01,40,15.60
2007,07,13,01,41,15.60
2007,07,13,01,42,15.50
2007,07,13,01,43,15.50
2007,07,13,01,44,15.40
2007,07,13,01,45,15.40
2007,07,13,01,46,15.30
2007,07,13,01,47,15.30
2007,07,13,01,48,15.30
2007,07,13,01,49,15.40
2007,07,13,01,50,15.50
2007,07,13,01,51,15.50
2007,07,13,01,52,15.60
2007,07,13,01,53,15.70
2007,07,13,01,54,15.80
2007,07,13,01,55,15.80
2007,07,13,01,56,15.90
2007,07,13,01,57,16.00
2007,07,13,01,58,16.20
2007,07,13,01,59,16.20
2007,07,13,02,00,16.30
2007,07,13,02,01,16.50
2007,07,13,02,02,16.60
2007,07,13,02,03,16.70
2007,07,13,02,04,16.70
2007,07,13,02,05,16.80
2007,07,13,02,06,16.90
2007,07,13,02,07,16.90
2007,07,13,02,08,16.90
2007,07,13,02,09,16.90
2007,07,13,02,10,16.90
2007,07,13,02,11,16.80
2007,07,13,02,12,16.70
2007,07,13,02,13,16.70
2007,07,13,02,14,16.60
2007,07,13,02,15,16.50
2007,07,13,02,16,16.40
2007,07,13,02,17,16.40
2007,07,13,02,18,16.30
2007,07,13,02,19,16.20
2007,07,13,02,20,16.20
2007,07,13,02,21,16.10
2007,07,13,02,22,16.10
2007,07,13,02,23,16.10
2007,07,13,02,24,16.10
2007,07,13,02,25,16.10
2007,07,13,02,26,16.10
2007,07,13,02,27,16.10
2007,07,13,02,28,16.10
2007,07,13,02,29,16.10
2007,07,13,02,30,15.90
2007,07,13,02,31,15.90
2007,07,13,02,32,15.90
2007,07,13,02,33,15.90
2007,07,13,02,34,15.90
2007,07,13,02,35,15.90
2007,07,13,02,36,15.80
2007,07,13,02,37,15.80
2007,07,13,02,38,15.80
2007,07,13,02,39,15.90
2007,07,13,02,40,15.90
2007,07,13,02,41,16.00
2007,07,13,02,42,16.10
2007,07,13,02,43,16.10
2007,07,13,02,44,16.10
2007,07,13,02,45,16.10
2007,07,13,02,46,16.10
2007,07,13,02,47,16.10
2007,07,13,02,48,16.10
2007,07,13,02,49,16.10
2007,07,13,02,50,16.10
2007,07,13,02,51,16.10
2007,07,13,02,52,16.10
2007,07,13,02,53,16.00
2007,07,13,02,54,15.90
2007,07,13,02,55,15.90
2007,07,13,02,56,15.90
2007,07,13,02,57,15.80
2007,07,13,02,58,15.80
2007,07,13,02,59,15.80
2007,07,13,03,00,15.70
2007,07,13,03,01,15.70
2007,07,13,03,02,15.60
2007,07,13,03,03,15.60
2007,07,13,03,04,15.50
2007,07,13,03,05,15.50
2007,07,13,03,06,15.50
2007,07,13,03,07,15.40
2007,07,13,03,08,15.30
2007,07,13,03,09,15.30
2007,07,13,03,10,15.30
2007,07,13,03,11,15.30
2007,07,13,03,12,15.30
2007,07,13,03,13,15.20
2007,07,13,03,14,15.20
2007,07,13,03,15,15.20
2007,07,13,03,16,15.10
2007,07,13,03,17,15.10
2007,07,13,03,18,15.10
2007,07,13,03,19,15.10
2007,07,13,03,20,15.10
2007,07,13,03,21,15.00
2007,07,13,03,22,15.00
2007,07,13,03,23,15.00
2007,07,13,03,24,15.00
2007,07,13,03,25,14.90
2007,07,13,03,26,14.90
2007,07,13,03,27,14.90
2007,07,13,03,28,14.80
2007,07,13,03,29,14.80
2007,07,13,03,30,14.80
2007,07,13,03,31,14.80
2007,07,13,03,32,14.80
2007,07,13,03,33,14.80
2007,07,13,03,34,14.80
2007,07,13,03,35,14.70
2007,07,13,03,36,14.70
2007,07,13,03,37,14.70
2007,07,13,03,38,14.70
2007,07,13,03,39,14.70
2007,07,13,03,40,14.70
2007,07,13,03,41,14.70
2007,07,13,03,42,14.70
2007,07,13,03,43,14.70
2007,07,13,03,44,14.70
2007,07,13,03,45,14.70
2007,07,13,03,46,14.70
2007,07,13,03,47,14.70
2007,07,13,03,48,14.70
2007,07,13,03,49,14.80
2007,07,13,03,50,14.70
2007,07,13,03,51,14.70
2007,07,13,03,52,14.70
2007,07,13,03,53,14.70
2007,07,13,03,54,14.80
2007,07,13,03,55,14.80
2007,07,13,03,56,14.80
2007,07,13,03,57,14.80
2007,07,13,03,58,14.80
2007,07,13,03,59,14.90
2007,07,13,04,00,14.90
2007,07,13,04,01,15.00
2007,07,13,04,02,15.00
2007,07,13,04,03,15.10
2007,07,13,04,04,15.10
2007,07,13,04,05,15.30
2007,07,13,04,06,15.30
2007,07,13,04,07,15.30
2007,07,13,04,08,15.20
2007,07,13,04,09,15.00
2007,07,13,04,10,14.80
2007,07,13,04,11,14.80
2007,07,13,04,12,14.80
2007,07,13,04,13,14.80
2007,07,13,04,14,14.90
2007,07,13,04,15,15.00
2007,07,13,04,16,15.10
2007,07,13,04,17,15.20
2007,07,13,04,18,15.30
2007,07,13,04,19,15.30
2007,07,13,04,20,15.30
2007,07,13,04,21,15.30
2007,07,13,04,22,15.30
2007,07,13,04,23,15.30
2007,07,13,04,24,15.30
2007,07,13,04,25,15.30
2007,07,13,04,26,15.20
2007,07,13,04,27,15.20
2007,07,13,04,28,15.20
2007,07,13,04,29,15.10
2007,07,13,04,30,15.10
2007,07,13,04,31,15.10
2007,07,13,04,32,15.00
2007,07,13,04,33,15.00
2007,07,13,04,34,14.90
2007,07,13,04,35,14.80
2007,07,13,04,36,14.80
2007,07,13,04,37,14.80
2007,07,13,04,38,14.80
2007,07,13,04,39,14.80
2007,07,13,04,40,14.70
2007,07,13,04,41,14.60
2007,07,13,04,42,14.60
2007,07,13,04,43,14.50
2007,07,13,04,44,14.50
2007,07,13,04,45,14.40
2007,07,13,04,46,14.40
2007,07,13,04,47,14.30
2007,07,13,04,48,14.30
2007,07,13,04,49,14.30
2007,07,13,04,50,14.20
2007,07,13,04,51,14.20
2007,07,13,04,52,14.30
2007,07,13,04,53,14.30
2007,07,13,04,54,14.30
2007,07,13,04,55,14.40
2007,07,13,04,56,14.40
2007,07,13,04,57,14.50
2007,07,13,04,58,14.60
2007,07,13,04,59,14.60
2007,07,13,05,00,14.70
2007,07,13,05,01,14.70
2007,07,13,05,02,14.80
2007,07,13,05,03,14.80
2007,07,13,05,04,14.80
2007,07,13,05,05,14.80
2007,07,13,05,06,14.90
2007,07,13,05,07,14.90
2007,07,13,05,08,14.90
2007,07,13,05,09,14.90
2007,07,13,05,10,14.90
2007,07,13,05,11,14.80
2007,07,13,05,12,14.80
2007,07,13,05,13,14.80
2007,07,13,05,14,14.80
2007,07,13,05,15,14.70
2007,07,13,05,16,14.60
2007,07,13,05,17,14.60
2007,07,13,05,18,14.60
2007,07,13,05,19,14.60
2007,07,13,05,20,14.50
2007,07,13,05,21,14.50
2007,07,13,05,22,14.50
2007,07,13,05,23,14.60
2007,07,13,05,24,14.60
2007,07,13,05,25,14.60
2007,07,13,05,26,14.60
2007,07,13,05,27,14.70
2007,07,13,05,28,14.70
2007,07,13,05,29,14.80
2007,07,13,05,30,14.80
2007,07,13,05,31,14.80
2007,07,13,05,32,14.80
2007,07,13,05,33,14.80
2007,07,13,05,34,14.80
2007,07,13,05,35,14.80
2007,07,13,05,36,14.80
2007,07,13,05,37,14.80
2007,07,13,05,38,14.80
2007,07,13,05,39,14.80
2007,07,13,05,40,14.80
2007,07,13,05,41,14.80
2007,07,13,05,42,14.80
2007,07,13,05,43,14.80
2007,07,13,05,44,14.80
2007,07,13,05,45,14.80
2007,07,13,05,46,14.80
2007,07,13,05,47,14.80
2007,07,13,05,48,14.80
2007,07,13,05,49,14.80
2007,07,13,05,50,14.80
2007,07,13,05,51,14.80
2007,07,13,05,52,14.80
2007,07,13,05,53,14.80
2007,07,13,05,54,14.80
2007,07,13,05,55,14.80
2007,07,13,05,56,14.80
2007,07,13,05,57,14.80
2007,07,13,05,58,14.80
2007,07,13,05,59,14.80
2007,07,13,06,00,14.80
2007,07,13,06,01,14.80
2007,07,13,06,02,14.80
2007,07,13,06,03,14.80
2007,07,13,06,04,14.80
2007,07,13,06,05,14.80
2007,07,13,06,06,14.80
2007,07,13,06,07,14.80
2007,07,13,06,08,14.80
2007,07,13,06,09,14.80
2007,07,13,06,10,14.80
2007,07,13,06,11,14.80
2007,07,13,06,12,14.80
2007,07,13,06,13,14.80
2007,07,13,06,14,14.80
2007,07,13,06,15,14.80
2007,07,13,06,16,14.80
2007,07,13,06,17,14.80
2007,07,13,06,18,14.80
2007,07,13,06,19,14.80
2007,07,13,06,20,14.80
2007,07,13,06,21,14.80
2007,07,13,06,22,14.80
2007,07,13,06,23,14.80
2007,07,13,06,24,14.80
2007,07,13,06,25,14.70
2007,07,13,06,26,14.70
2007,07,13,06,27,14.70
2007,07,13,06,28,14.70
2007,07,13,06,29,14.70
2007,07,13,06,30,14.70
2007,07,13,06,31,14.70
2007,07,13,06,32,14.70
2007,07,13,06,33,14.70
2007,07,13,06,34,14.70
2007,07,13,06,35,14.70
2007,07,13,06,36,14.70
2007,07,13,06,37,14.70
2007,07,13,06,38,14.70
2007,07,13,06,39,14.80
2007,07,13,06,40,14.80
2007,07,13,06,41,14.80
2007,07,13,06,42,14.90
2007,07,13,06,43,14.90
2007,07,13,06,44,14.90
2007,07,13,06,45,15.00
2007,07,13,06,46,15.00
2007,07,13,06,47,15.00
2007,07,13,06,48,15.00
2007,07,13,06,49,15.00
2007,07,13,06,50,15.10
2007,07,13,06,51,15.20
2007,07,13,06,52,15.20
2007,07,13,06,53,15.20
2007,07,13,06,54,15.30
2007,07,13,06,55,15.30
2007,07,13,06,56,15.30
2007,07,13,06,57,15.30
2007,07,13,06,58,15.30
2007,07,13,06,59,15.40
2007,07,13,07,00,15.40
2007,07,13,07,01,15.40
2007,07,13,07,02,15.50
2007,07,13,07,03,15.50
2007,07,13,07,04,15.50
2007,07,13,07,05,15.50
2007,07,13,07,06,15.50
2007,07,13,07,07,15.50
2007,07,13,07,08,15.50
2007,07,13,07,09,15.50
2007,07,13,07,10,15.50
2007,07,13,07,11,15.50
2007,07,13,07,12,15.50
2007,07,13,07,13,15.50
2007,07,13,07,14,15.60
2007,07,13,07,15,15.60
2007,07,13,07,16,15.70
2007,07,13,07,17,15.70
2007,07,13,07,18,15.80
2007,07,13,07,19,15.80
2007,07,13,07,20,15.80
2007,07,13,07,21,15.80
2007,07,13,07,22,15.80
2007,07,13,07,23,15.90
2007,07,13,07,24,16.00
2007,07,13,07,25,16.10
2007,07,13,07,26,16.10
2007,07,13,07,27,16.10
2007,07,13,07,28,16.20
2007,07,13,07,29,16.20
2007,07,13,07,30,16.30
2007,07,13,07,31,16.40
2007,07,13,07,32,16.40
2007,07,13,07,33,16.50
2007,07,13,07,34,16.60
2007,07,13,07,35,16.60
2007,07,13,07,36,16.70
2007,07,13,07,37,16.70
2007,07,13,07,38,16.70
2007,07,13,07,39,16.80
2007,07,13,07,40,16.80
2007,07,13,07,41,16.80
2007,07,13,07,42,16.80
2007,07,13,07,43,16.80
2007,07,13,07,44,16.90
2007,07,13,07,45,16.90
2007,07,13,07,46,16.90
2007,07,13,07,47,16.90
2007,07,13,07,48,16.90
2007,07,13,07,49,16.90
2007,07,13,07,50,16.90
2007,07,13,07,51,17.00
2007,07,13,07,52,17.00
2007,07,13,07,53,17.10
2007,07,13,07,54,17.10
2007,07,13,07,55,17.20
2007,07,13,07,56,17.20
2007,07,13,07,57,17.20
2007,07,13,07,58,17.30
2007,07,13,07,59,17.30
2007,07,13,08,00,17.30
2007,07,13,08,01,17.30
2007,07,13,08,02,17.30
2007,07,13,08,03,17.30
2007,07,13,08,04,17.30
2007,07,13,08,05,17.20
2007,07,13,08,06,17.20
2007,07,13,08,07,17.00
2007,07,13,08,08,17.00
2007,07,13,08,09,17.00
2007,07,13,08,10,17.00
2007,07,13,08,11,16.90
2007,07,13,08,12,16.90
2007,07,13,08,13,17.00
2007,07,13,08,14,17.00
2007,07,13,08,15,17.00
2007,07,13,08,16,17.00
2007,07,13,08,17,17.10
2007,07,13,08,18,17.20
2007,07,13,08,19,17.30
2007,07,13,08,20,17.30
2007,07,13,08,21,17.30
2007,07,13,08,22,17.30
2007,07,13,08,23,17.40
2007,07,13,08,24,17.40
2007,07,13,08,25,17.40
2007,07,13,08,26,17.40
2007,07,13,08,27,17.30
2007,07,13,08,28,17.30
2007,07,13,08,29,17.30
2007,07,13,08,30,17.30
2007,07,13,08,31,17.30
2007,07,13,08,32,17.30
2007,07,13,08,33,17.30
2007,07,13,08,34,17.20
2007,07,13,08,35,17.20
2007,07,13,08,36,17.20
2007,07,13,08,37,17.20
2007,07,13,08,38,17.20
2007,07,13,08,39,17.20
2007,07,13,08,40,17.10
2007,07,13,08,41,17.10
2007,07,13,08,42,17.00
2007,07,13,08,43,17.00
2007,07,13,08,44,17.00
2007,07,13,08,45,17.10
2007,07,13,08,46,17.10
2007,07,13,08,47,17.20
2007,07,13,08,48,17.20
2007,07,13,08,49,17.30
2007,07,13,08,50,17.30
2007,07,13,08,51,17.40
2007,07,13,08,52,17.50
2007,07,13,08,53,17.70
2007,07,13,08,54,17.70
2007,07,13,08,55,17.70
2007,07,13,08,56,17.70
2007,07,13,08,57,17.70
2007,07,13,08,58,17.70
2007,07,13,08,59,17.70
2007,07,13,09,00,17.70
2007,07,13,09,01,17.60
2007,07,13,09,02,17.70
2007,07,13,09,03,17.70
2007,07,13,09,04,17.80
2007,07,13,09,05,17.90
2007,07,13,09,06,17.90
2007,07,13,09,07,18.00
2007,07,13,09,08,18.10
2007,07,13,09,09,18.10
2007,07,13,09,10,18.20
2007,07,13,09,11,18.30
2007,07,13,09,12,18.30
2007,07,13,09,13,18.30
2007,07,13,09,14,18.40
2007,07,13,09,15,18.50
2007,07,13,09,16,18.50
2007,07,13,09,17,18.50
2007,07,13,09,18,18.50
2007,07,13,09,19,18.50
2007,07,13,09,20,18.50
2007,07,13,09,21,18.60
2007,07,13,09,22,18.60
2007,07,13,09,23,18.60
2007,07,13,09,24,18.70
2007,07,13,09,25,18.70
2007,07,13,09,26,18.70
2007,07,13,09,27,18.80
2007,07,13,09,28,18.80
2007,07,13,09,29,18.80
2007,07,13,09,30,18.80
2007,07,13,09,31,18.80
2007,07,13,09,32,18.80
2007,07,13,09,33,18.80
2007,07,13,09,34,18.80
2007,07,13,09,35,18.90
2007,07,13,09,36,18.90
2007,07,13,09,37,18.90
2007,07,13,09,38,18.90
2007,07,13,09,39,19.00
2007,07,13,09,40,19.10
2007,07,13,09,41,19.10
2007,07,13,09,42,19.10
2007,07,13,09,43,19.10
2007,07,13,09,44,19.20
2007,07,13,09,45,19.20
2007,07,13,09,46,19.30
2007,07,13,09,47,19.30
2007,07,13,09,48,19.30
2007,07,13,09,49,19.20
2007,07,13,09,50,19.20
2007,07,13,09,51,19.20
2007,07,13,09,52,19.20
2007,07,13,09,53,19.20
2007,07,13,09,54,19.10
2007,07,13,09,55,19.10
2007,07,13,09,56,19.20
2007,07,13,09,57,19.20
2007,07,13,09,58,19.20
2007,07,13,09,59,19.20
2007,07,13,10,00,19.20
2007,07,13,10,01,19.20
2007,07,13,10,02,19.10
2007,07,13,10,03,19.00
2007,07,13,10,04,18.90
2007,07,13,10,05,18.90
2007,07,13,10,06,18.80
2007,07,13,10,07,18.80
2007,07,13,10,08,18.70
2007,07,13,10,09,18.70
2007,07,13,10,10,18.70
2007,07,13,10,11,18.70
2007,07,13,10,12,18.70
2007,07,13,10,13,18.70
2007,07,13,10,14,18.70
2007,07,13,10,15,18.70
2007,07,13,10,16,18.70
2007,07,13,10,17,18.70
2007,07,13,10,18,18.80
2007,07,13,10,19,18.70
2007,07,13,10,20,18.70
2007,07,13,10,21,18.80
2007,07,13,10,22,18.80
2007,07,13,10,23,18.80
2007,07,13,10,24,18.70
2007,07,13,10,25,18.60
2007,07,13,10,26,18.60
2007,07,13,10,27,18.50
2007,07,13,10,28,18.50
2007,07,13,10,29,18.40
2007,07,13,10,30,18.40
2007,07,13,10,31,18.30
2007,07,13,10,32,18.40
2007,07,13,10,33,18.40
2007,07,13,10,34,18.40
2007,07,13,10,35,18.40
2007,07,13,10,36,18.40
2007,07,13,10,37,18.50
2007,07,13,10,38,18.40
2007,07,13,10,39,18.10
2007,07,13,10,40,17.80
2007,07,13,10,41,17.50
2007,07,13,10,42,17.30
2007,07,13,10,43,17.20
2007,07,13,10,44,17.10
2007,07,13,10,45,17.20
2007,07,13,10,46,17.20
2007,07,13,10,47,17.30
2007,07,13,10,48,17.20
2007,07,13,10,49,17.00
2007,07,13,10,50,16.90
2007,07,13,10,51,16.90
2007,07,13,10,52,16.80
2007,07,13,10,53,16.80
2007,07,13,10,54,16.90
2007,07,13,10,55,16.90
2007,07,13,10,56,16.90
2007,07,13,10,57,16.80
2007,07,13,10,58,16.80
2007,07,13,10,59,16.70
2007,07,13,11,00,16.70
2007,07,13,11,01,16.80
2007,07,13,11,02,16.90
2007,07,13,11,03,17.10
2007,07,13,11,04,17.30
2007,07,13,11,05,17.30
2007,07,13,11,06,17.30
2007,07,13,11,07,17.20
2007,07,13,11,08,17.20
2007,07,13,11,09,17.20
2007,07,13,11,10,17.20
2007,07,13,11,11,17.10
2007,07,13,11,12,17.10
2007,07,13,11,13,17.00
2007,07,13,11,14,16.90
2007,07,13,11,15,16.80
2007,07,13,11,16,16.70
2007,07,13,11,17,16.70
2007,07,13,11,18,16.50
2007,07,13,11,19,16.40
2007,07,13,11,20,16.40
2007,07,13,11,21,16.40
2007,07,13,11,22,16.40
2007,07,13,11,23,16.30
2007,07,13,11,24,16.10
2007,07,13,11,25,15.80
2007,07,13,11,26,15.30
2007,07,13,11,27,15.20
2007,07,13,11,28,15.20
2007,07,13,11,29,15.20
2007,07,13,11,30,15.20
2007,07,13,11,31,15.10
2007,07,13,11,32,15.10
2007,07,13,11,33,15.20
2007,07,13,11,34,15.10
2007,07,13,11,35,15.10
2007,07,13,11,36,15.20
2007,07,13,11,37,15.30
2007,07,13,11,38,15.30
2007,07,13,11,39,15.20
2007,07,13,11,40,15.20
2007,07,13,11,41,15.20
2007,07,13,11,42,15.40
2007,07,13,11,43,15.60
2007,07,13,11,44,15.70
2007,07,13,11,45,15.60
2007,07,13,11,46,15.40
2007,07,13,11,47,15.30
2007,07,13,11,48,15.30
2007,07,13,11,49,15.30
2007,07,13,11,50,15.40
2007,07,13,11,51,15.40
2007,07,13,11,52,15.40
2007,07,13,11,53,15.30
2007,07,13,11,54,15.30
2007,07,13,11,55,15.40
2007,07,13,11,56,15.50
2007,07,13,11,57,15.50
2007,07,13,11,58,15.60
2007,07,13,11,59,15.60
2007,07,13,12,00,15.50
2007,07,13,12,01,15.50
2007,07,13,12,02,15.40
2007,07,13,12,03,15.30
2007,07,13,12,04,15.30
2007,07,13,12,05,15.40
2007,07,13,12,06,15.50
2007,07,13,12,07,15.50
2007,07,13,12,08,15.60
2007,07,13,12,09,15.50
2007,07,13,12,10,15.60
2007,07,13,12,11,15.60
2007,07,13,12,12,15.70
2007,07,13,12,13,15.80
2007,07,13,12,14,15.90
2007,07,13,12,15,16.00
2007,07,13,12,16,16.00
2007,07,13,12,17,16.00
2007,07,13,12,18,16.10
2007,07,13,12,19,16.10
2007,07,13,12,20,16.10
2007,07,13,12,21,16.10
2007,07,13,12,22,16.10
2007,07,13,12,23,16.10
2007,07,13,12,24,16.20
2007,07,13,12,25,16.10
2007,07,13,12,26,16.10
2007,07,13,12,27,16.20
2007,07,13,12,28,16.30
2007,07,13,12,29,16.30
2007,07,13,12,30,16.30
2007,07,13,12,31,16.30
2007,07,13,12,32,16.30
2007,07,13,12,33,16.20
2007,07,13,12,34,16.20
2007,07,13,12,35,16.20
2007,07,13,12,36,16.30
2007,07,13,12,37,16.20
2007,07,13,12,38,16.20
2007,07,13,12,39,16.20
2007,07,13,12,40,16.30
2007,07,13,12,41,16.40
2007,07,13,12,42,16.40
2007,07,13,12,43,16.40
2007,07,13,12,44,16.40
2007,07,13,12,45,16.40
2007,07,13,12,46,16.40
2007,07,13,12,47,16.40
2007,07,13,12,48,16.40
2007,07,13,12,49,16.40
2007,07,13,12,50,16.40
2007,07,13,12,51,16.40
2007,07,13,12,52,16.40
2007,07,13,12,53,16.60
2007,07,13,12,54,16.60
2007,07,13,12,55,16.60
2007,07,13,12,56,16.70
2007,07,13,12,57,16.70
2007,07,13,12,58,16.70
2007,07,13,12,59,16.70
2007,07,13,13,00,16.70
2007,07,13,13,01,16.70
2007,07,13,13,02,16.70
2007,07,13,13,03,16.70
2007,07,13,13,04,16.70
2007,07,13,13,05,16.60
2007,07,13,13,06,16.50
2007,07,13,13,07,16.40
2007,07,13,13,08,16.30
2007,07,13,13,09,16.20
2007,07,13,13,10,16.20
2007,07,13,13,11,16.20
2007,07,13,13,12,16.20
2007,07,13,13,13,16.30
2007,07,13,13,14,16.30
2007,07,13,13,15,16.40
2007,07,13,13,16,16.60
2007,07,13,13,17,16.60
2007,07,13,13,18,16.60
2007,07,13,13,19,16.60
2007,07,13,13,20,16.70
2007,07,13,13,21,16.70
2007,07,13,13,22,16.80
2007,07,13,13,23,16.90
2007,07,13,13,24,16.90
2007,07,13,13,25,16.90
2007,07,13,13,26,17.00
2007,07,13,13,27,17.10
2007,07,13,13,28,17.10
2007,07,13,13,29,17.00
2007,07,13,13,30,16.90
2007,07,13,13,31,16.80
2007,07,13,13,32,16.80
2007,07,13,13,33,16.70
2007,07,13,13,34,16.70
2007,07,13,13,35,16.80
2007,07,13,13,36,16.80
2007,07,13,13,37,16.90
2007,07,13,13,38,17.00
2007,07,13,13,39,17.00
2007,07,13,13,40,17.00
2007,07,13,13,41,17.00
2007,07,13,13,42,17.00
2007,07,13,13,43,16.90
2007,07,13,13,44,16.90
2007,07,13,13,45,17.00
2007,07,13,13,46,17.00
2007,07,13,13,47,17.10
2007,07,13,13,48,17.30
2007,07,13,13,49,17.50
2007,07,13,13,50,17.60
2007,07,13,13,51,17.70
2007,07,13,13,52,17.80
2007,07,13,13,53,17.90
2007,07,13,13,54,17.90
2007,07,13,13,55,17.90
2007,07,13,13,56,18.00
2007,07,13,13,57,18.20
2007,07,13,13,58,18.20
2007,07,13,13,59,18.20
2007,07,13,14,00,18.20
2007,07,13,14,01,18.10
2007,07,13,14,02,17.90
2007,07,13,14,03,17.90
2007,07,13,14,04,17.90
2007,07,13,14,05,17.90
2007,07,13,14,06,17.90
2007,07,13,14,07,17.90
2007,07,13,14,08,18.00
2007,07,13,14,09,18.20
2007,07,13,14,10,18.20
2007,07,13,14,11,18.30
2007,07,13,14,12,18.20
2007,07,13,14,13,18.20
2007,07,13,14,14,18.20
2007,07,13,14,15,18.00
2007,07,13,14,16,17.90
2007,07,13,14,17,17.90
2007,07,13,14,18,17.90
2007,07,13,14,19,18.10
2007,07,13,14,20,18.20
2007,07,13,14,21,18.20
2007,07,13,14,22,18.20
2007,07,13,14,23,18.20
2007,07,13,14,24,18.20
2007,07,13,14,25,18.20
2007,07,13,14,26,18.30
2007,07,13,14,27,18.30
2007,07,13,14,28,18.30
2007,07,13,14,29,18.10
2007,07,13,14,30,17.70
2007,07,13,14,31,17.50
2007,07,13,14,32,17.50
2007,07,13,14,33,17.60
2007,07,13,14,34,17.80
2007,07,13,14,35,18.10
2007,07,13,14,36,18.40
2007,07,13,14,37,18.70
2007,07,13,14,38,18.90
2007,07,13,14,39,19.00
2007,07,13,14,40,19.10
2007,07,13,14,41,19.10
2007,07,13,14,42,19.40
2007,07,13,14,43,19.60
2007,07,13,14,44,19.90
2007,07,13,14,45,19.90
2007,07,13,14,46,20.00
2007,07,13,14,47,20.10
2007,07,13,14,48,20.20
2007,07,13,14,49,20.20
2007,07,13,14,50,20.20
2007,07,13,14,51,20.20
2007,07,13,14,52,20.30
2007,07,13,14,53,20.30
2007,07,13,14,54,20.20
2007,07,13,14,55,20.20
2007,07,13,14,56,20.20
2007,07,13,14,57,20.30
2007,07,13,14,58,20.50
2007,07,13,14,59,20.60
2007,07,13,15,00,20.80
2007,07,13,15,01,21.00
2007,07,13,15,02,21.20
2007,07,13,15,03,21.30
2007,07,13,15,04,21.30
2007,07,13,15,05,21.30
2007,07,13,15,06,21.30
2007,07,13,15,07,21.40
2007,07,13,15,08,21.40
2007,07,13,15,09,21.40
2007,07,13,15,10,21.40
2007,07,13,15,11,21.60
2007,07,13,15,12,21.60
2007,07,13,15,13,21.70
2007,07,13,15,14,21.80
2007,07,13,15,15,21.70
2007,07,13,15,16,21.70
2007,07,13,15,17,21.60
2007,07,13,15,18,21.60
2007,07,13,15,19,21.60
2007,07,13,15,20,21.50
2007,07,13,15,21,21.40
2007,07,13,15,22,21.50
2007,07,13,15,23,21.60
2007,07,13,15,24,21.60
2007,07,13,15,25,21.60
2007,07,13,15,26,21.60
2007,07,13,15,27,21.40
2007,07,13,15,28,21.30
2007,07,13,15,29,21.20
2007,07,13,15,30,21.10
2007,07,13,15,31,21.10
2007,07,13,15,32,21.10
2007,07,13,15,33,21.10
2007,07,13,15,34,21.20
2007,07,13,15,35,21.30
2007,07,13,15,36,21.30
2007,07,13,15,37,21.30
2007,07,13,15,38,21.20
2007,07,13,15,39,21.10
2007,07,13,15,40,21.10
2007,07,13,15,41,21.10
2007,07,13,15,42,21.10
2007,07,13,15,43,21.10
2007,07,13,15,44,21.00
2007,07,13,15,45,21.00
2007,07,13,15,46,21.00
2007,07,13,15,47,21.00
2007,07,13,15,48,21.00
2007,07,13,15,49,21.10
2007,07,13,15,50,21.30
2007,07,13,15,51,21.30
2007,07,13,15,52,21.30
2007,07,13,15,53,21.30
2007,07,13,15,54,21.40
2007,07,13,15,55,21.40
2007,07,13,15,56,21.40
2007,07,13,15,57,21.40
2007,07,13,15,58,21.50
2007,07,13,15,59,21.60
2007,07,13,16,00,21.60
2007,07,13,16,01,21.60
2007,07,13,16,02,21.70
2007,07,13,16,03,21.70
2007,07,13,16,04,21.70
2007,07,13,16,05,21.70
2007,07,13,16,06,21.70
2007,07,13,16,07,21.80
2007,07,13,16,08,21.80
2007,07,13,16,09,21.90
2007,07,13,16,10,21.90
2007,07,13,16,11,21.80
2007,07,13,16,12,21.80
2007,07,13,16,13,21.80
2007,07,13,16,14,21.80
2007,07,13,16,15,21.90
2007,07,13,16,16,21.90
2007,07,13,16,17,21.90
2007,07,13,16,18,21.90
2007,07,13,16,19,21.80
2007,07,13,16,20,21.90
2007,07,13,16,21,21.90
2007,07,13,16,22,22.00
2007,07,13,16,23,22.10
2007,07,13,16,24,22.10
2007,07,13,16,25,22.10
2007,07,13,16,26,22.10
2007,07,13,16,27,22.10
2007,07,13,16,28,22.10
2007,07,13,16,29,22.00
2007,07,13,16,30,21.90
2007,07,13,16,31,21.70
2007,07,13,16,32,21.70
2007,07,13,16,33,21.70
2007,07,13,16,34,21.70
2007,07,13,16,35,21.70
2007,07,13,16,36,21.80
2007,07,13,16,37,21.90
2007,07,13,16,38,21.90
2007,07,13,16,39,21.90
2007,07,13,16,40,21.90
2007,07,13,16,41,21.90
2007,07,13,16,42,21.90
2007,07,13,16,43,21.80
2007,07,13,16,44,21.80
2007,07,13,16,45,21.80
2007,07,13,16,46,21.70
2007,07,13,16,47,21.70
2007,07,13,16,48,21.70
2007,07,13,16,49,21.70
2007,07,13,16,50,21.60
2007,07,13,16,51,21.70
2007,07,13,16,52,21.70
2007,07,13,16,53,21.70
2007,07,13,16,54,21.70
2007,07,13,16,55,21.70
2007,07,13,16,56,21.70
2007,07,13,16,57,21.80
2007,07,13,16,58,21.80
2007,07,13,16,59,21.90
2007,07,13,17,00,21.90
2007,07,13,17,01,22.00
2007,07,13,17,02,22.00
2007,07,13,17,03,22.00
2007,07,13,17,04,21.90
2007,07,13,17,05,21.90
2007,07,13,17,06,21.90
2007,07,13,17,07,21.90
2007,07,13,17,08,22.00
2007,07,13,17,09,22.00
2007,07,13,17,10,21.90
2007,07,13,17,11,21.90
2007,07,13,17,12,21.90
2007,07,13,17,13,21.90
2007,07,13,17,14,21.90
2007,07,13,17,15,21.80
2007,07,13,17,16,21.80
2007,07,13,17,17,21.70
2007,07,13,17,18,21.60
2007,07,13,17,19,21.60